Time,TemperatureF,DewpointF,PressureIn,WindDirection,WindDirectionDegrees,WindSpeedMPH,WindSpeedGustMPH,Humidity,HourlyPrecipIn,Conditions,Clouds,dailyrainin,SoftwareType,DateUTC
2013-10-31 00:13:00,59.0,59.0,29.76,SW,220,1.0,-999.0,99,-99.99,,,-99.99,,2013-10-31 05:13:00,
2013-10-31 00:23:00,61.0,61.0,29.75,SW,216,0.0,-999.0,99,-99.99,,,-99.99,,2013-10-31 05:23:00,
2013-10-31 00:33:00,61.0,61.0,29.75,SW,216,0.0,-999.0,99,-99.99,,,-99.99,,2013-10-31 05:33:00,
2013-10-31 00:43:00,61.0,61.0,29.75,SW,216,0.0,-999.0,99,-99.99,,,-99.99,,2013-10-31 05:43:00,
2013-10-31 00:52:00,61.0,61.0,29.73,SSW,201,0.0,-999.0,99,-99.99,,,-99.99,,2013-10-31 05:52:00,
2013-10-31 01:12:00,62.0,62.0,29.72,SSW,202,0.0,-999.0,99,-99.99,,,-99.99,,2013-10-31 06:12:00,
2013-10-31 01:22:00,62.0,62.0,29.71,SSW,202,0.0,-999.0,99,-99.99,,,-99.99,,2013-10-31 06:22:00,
2013-10-31 01:42:00,62.0,62.0,29.71,SSW,202,0.0,-999.0,99,-99.99,,,-99.99,,2013-10-31 06:42:00,
2013-10-31 01:53:00,62.0,62.0,29.70,SSW,202,0.0,-999.0,99,-99.99,,,-99.99,,2013-10-31 06:53:00,
2013-10-31 02:11:00,62.0,62.0,29.70,SSW,202,0.0,-999.0,99,-99.99,,,-99.99,,2013-10-31 07:11:00,
2013-10-31 02:21:00,62.0,62.0,29.69,SSW,199,0.0,-999.0,99,-99.99,,,-99.99,,2013-10-31 07:21:00,
2013-10-31 02:42:00,62.0,62.0,29.68,SSW,194,0.0,-999.0,99,-99.99,,,-99.99,,2013-10-31 07:42:00,
2013-10-31 02:52:00,62.0,62.0,29.68,South,190,0.0,-999.0,99,-99.99,,,-99.99,,2013-10-31 07:52:00,
2013-10-31 03:12:00,62.0,62.0,29.67,South,182,0.0,-999.0,99,-99.99,,,-99.99,,2013-10-31 08:12:00,
2013-10-31 03:22:00,62.0,62.0,29.66,South,184,0.0,-999.0,99,-99.99,,,-99.99,,2013-10-31 08:22:00,
2013-10-31 03:42:00,62.0,62.0,29.65,South,191,1.0,-999.0,99,-99.99,,,-99.99,,2013-10-31 08:42:00,
2013-10-31 03:52:00,62.0,62.0,29.64,South,184,0.0,-999.0,99,-99.99,,,-99.99,,2013-10-31 08:52:00,
2013-10-31 04:11:00,62.0,62.0,29.62,SSE,149,1.0,-999.0,99,-99.99,,,-99.99,,2013-10-31 09:11:00,
2013-10-31 04:22:00,62.0,62.0,29.61,SE,144,1.0,-999.0,99,-99.99,,,-99.99,,2013-10-31 09:22:00,
2013-10-31 04:43:00,61.0,61.0,29.59,SSE,161,1.0,-999.0,99,-99.99,,,-99.99,,2013-10-31 09:43:00,
2013-10-31 04:53:00,61.0,61.0,29.59,SSW,202,1.0,-999.0,99,-99.99,,,-99.99,,2013-10-31 09:53:00,
2013-10-31 05:13:00,61.0,61.0,29.59,SW,236,2.0,-999.0,99,-99.99,,,-99.99,,2013-10-31 10:13:00,
2013-10-31 05:23:00,61.0,61.0,29.60,SSW,192,2.0,-999.0,99,-99.99,,,-99.99,,2013-10-31 10:23:00,
2013-10-31 05:42:00,61.0,61.0,29.60,SSW,194,1.0,-999.0,99,-99.99,,,-99.99,,2013-10-31 10:42:00,
2013-10-31 05:53:00,61.0,61.0,29.60,SW,223,2.0,-999.0,99,-99.99,,,-99.99,,2013-10-31 10:53:00,
2013-10-31 06:12:00,61.0,61.0,29.59,SSW,208,1.0,-999.0,99,-99.99,,,-99.99,,2013-10-31 11:12:00,
2013-10-31 06:21:00,61.0,61.0,29.59,SSW,211,2.0,-999.0,99,-99.99,,,-99.99,,2013-10-31 11:21:00,
2013-10-31 06:42:00,61.0,61.0,29.58,SSE,155,1.0,-999.0,99,-99.99,,,-99.99,,2013-10-31 11:42:00,
2013-10-31 06:52:00,61.0,61.0,29.57,SSW,199,0.0,-999.0,99,-99.99,,,-99.99,,2013-10-31 11:52:00,
2013-10-31 07:12:00,61.0,61.0,29.57,South,173,2.0,-999.0,99,-99.99,,,-99.99,,2013-10-31 12:12:00,
2013-10-31 07:22:00,61.0,61.0,29.56,SSW,194,0.0,-999.0,99,-99.99,,,-99.99,,2013-10-31 12:22:00,
2013-10-31 07:42:00,61.0,60.0,29.56,South,169,0.0,-999.0,98,-99.99,,,-99.99,,2013-10-31 12:42:00,
2013-10-31 07:52:00,61.0,60.0,29.55,South,173,1.0,-999.0,98,-99.99,,,-99.99,,2013-10-31 12:52:00,
2013-10-31 08:12:00,61.0,60.0,29.56,South,173,1.0,-999.0,98,-99.99,,,-99.99,,2013-10-31 13:12:00,
2013-10-31 08:22:00,61.0,60.0,29.55,South,190,1.0,-999.0,98,-99.99,,,-99.99,,2013-10-31 13:22:00,
2013-10-31 08:42:00,61.0,60.0,29.56,South,188,0.0,-999.0,98,-99.99,,,-99.99,,2013-10-31 13:42:00,
2013-10-31 08:52:00,61.0,60.0,29.56,SW,233,1.0,-999.0,98,-99.99,,,-99.99,,2013-10-31 13:52:00,
2013-10-31 09:11:00,60.0,59.0,29.55,SW,231,0.0,-999.0,98,-99.99,,,-99.99,,2013-10-31 14:11:00,
2013-10-31 09:21:00,60.0,59.0,29.55,SW,230,0.0,-999.0,98,-99.99,,,-99.99,,2013-10-31 14:21:00,
2013-10-31 09:42:00,60.0,59.0,29.53,SSE,162,0.0,-999.0,98,-99.99,,,-99.99,,2013-10-31 14:42:00,
2013-10-31 09:52:00,61.0,60.0,29.52,South,186,0.0,-999.0,98,-99.99,,,-99.99,,2013-10-31 14:52:00,
2013-10-31 10:11:00,60.0,59.0,29.52,SSW,206,0.0,-999.0,98,-99.99,,,-99.99,,2013-10-31 15:11:00,
2013-10-31 11:23:00,61.0,60.0,29.47,South,187,0.0,-999.0,98,-99.99,,,-99.99,,2013-10-31 16:23:00,
2013-10-31 11:53:00,61.0,60.0,29.45,South,173,0.0,-999.0,98,-99.99,,,-99.99,,2013-10-31 16:53:00,
2013-10-31 12:03:00,61.0,60.0,29.45,South,173,0.0,-999.0,98,-99.99,,,-99.99,,2013-10-31 17:03:00,
2013-10-31 12:12:00,61.0,60.0,29.45,South,173,0.0,-999.0,98,-99.99,,,-99.99,,2013-10-31 17:12:00,
2013-10-31 12:22:00,61.0,60.0,29.43,South,180,0.0,-999.0,98,-99.99,,,-99.99,,2013-10-31 17:22:00,
2013-10-31 12:43:00,61.0,60.0,29.41,South,173,0.0,-999.0,98,-99.99,,,-99.99,,2013-10-31 17:43:00,
2013-10-31 12:52:00,61.0,60.0,29.40,South,173,0.0,-999.0,98,-99.99,,,-99.99,,2013-10-31 17:52:00,
2013-10-31 13:22:00,61.0,60.0,29.37,SW,221,0.0,-999.0,98,-99.99,,,-99.99,,2013-10-31 18:22:00,
2013-10-31 13:42:00,60.0,59.0,29.35,SW,221,0.0,-999.0,98,-99.99,,,-99.99,,2013-10-31 18:42:00,
2013-10-31 13:52:00,60.0,59.0,29.34,SW,221,0.0,-999.0,98,-99.99,,,-99.99,,2013-10-31 18:52:00,
2013-10-31 14:21:00,59.0,58.0,29.32,West,262,0.0,-999.0,98,-99.99,,,-99.99,,2013-10-31 19:21:00,
2013-10-31 14:32:00,59.0,58.0,29.32,West,262,0.0,-999.0,98,-99.99,,,-99.99,,2013-10-31 19:32:00,
2013-10-31 14:52:00,57.0,56.0,29.31,WNW,286,6.0,-999.0,97,-99.99,,,-99.99,,2013-10-31 19:52:00,
2013-10-31 15:22:00,56.0,55.0,29.29,NW,306,4.0,-999.0,98,-99.99,,,-99.99,,2013-10-31 20:22:00,
2013-10-31 15:42:00,55.0,54.0,29.29,West,275,5.0,-999.0,97,-99.99,,,-99.99,,2013-10-31 20:42:00,
2013-10-31 15:52:00,54.0,53.0,29.28,WNW,298,5.0,-999.0,98,-99.99,,,-99.99,,2013-10-31 20:52:00,
2013-10-31 16:11:00,54.0,53.0,29.26,NW,312,3.0,-999.0,98,-99.99,,,-99.99,,2013-10-31 21:11:00,
2013-10-31 16:22:00,54.0,53.0,29.30,WNW,294,5.0,-999.0,98,-99.99,,,-99.99,,2013-10-31 21:22:00,
2013-10-31 16:44:00,53.0,52.0,29.29,West,277,6.0,-999.0,97,-99.99,,,-99.99,,2013-10-31 21:44:00,
2013-10-31 16:54:00,53.0,52.0,29.31,WSW,253,5.0,-999.0,97,-99.99,,,-99.99,,2013-10-31 21:54:00,
2013-10-31 17:13:00,52.0,51.0,29.31,West,281,6.0,-999.0,97,-99.99,,,-99.99,,2013-10-31 22:13:00,
2013-10-31 17:24:00,51.0,50.0,29.31,WNW,288,6.0,-999.0,97,-99.99,,,-99.99,,2013-10-31 22:24:00,
2013-10-31 17:43:00,51.0,50.0,29.30,NW,322,5.0,-999.0,96,-99.99,,,-99.99,,2013-10-31 22:43:00,
2013-10-31 17:53:00,51.0,50.0,29.31,West,277,4.0,-999.0,96,-99.99,,,-99.99,,2013-10-31 22:53:00,
2013-10-31 18:22:00,50.0,49.0,29.34,WSW,254,4.0,-999.0,95,-99.99,,,-99.99,,2013-10-31 23:22:00,
2013-10-31 18:53:00,49.0,48.0,29.36,West,281,6.0,-999.0,95,-99.99,,,-99.99,,2013-10-31 23:53:00,
2013-10-31 19:11:00,48.0,47.0,29.36,WSW,252,6.0,-999.0,95,-99.99,,,-99.99,,2013-11-01 00:11:00,
2013-10-31 19:21:00,47.0,46.0,29.37,West,268,4.0,-999.0,96,-99.99,,,-99.99,,2013-11-01 00:21:00,
2013-10-31 19:42:00,47.0,46.0,29.35,West,274,4.0,-999.0,96,-99.99,,,-99.99,,2013-11-01 00:42:00,
2013-10-31 19:52:00,47.0,46.0,29.35,West,274,3.0,-999.0,96,-99.99,,,-99.99,,2013-11-01 00:52:00,
2013-10-31 20:12:00,46.0,45.0,29.39,West,280,3.0,-999.0,96,-99.99,,,-99.99,,2013-11-01 01:12:00,
2013-10-31 20:22:00,46.0,45.0,29.35,WNW,283,3.0,-999.0,96,-99.99,,,-99.99,,2013-11-01 01:22:00,
2013-10-31 20:42:00,46.0,45.0,29.35,WSW,254,5.0,-999.0,96,-99.99,,,-99.99,,2013-11-01 01:42:00,
2013-10-31 20:52:00,46.0,45.0,29.36,WSW,257,6.0,-999.0,96,-99.99,,,-99.99,,2013-11-01 01:52:00,
2013-10-31 21:22:00,45.0,44.0,29.36,West,270,6.0,-999.0,95,-99.99,,,-99.99,,2013-11-01 02:22:00,
2013-10-31 21:42:00,45.0,44.0,29.37,SW,233,6.0,-999.0,95,-99.99,,,-99.99,,2013-11-01 02:42:00,
2013-10-31 21:52:00,45.0,44.0,29.38,West,267,6.0,-999.0,95,-99.99,,,-99.99,,2013-11-01 02:52:00,
2013-10-31 22:12:00,44.0,43.0,29.39,West,275,6.0,-999.0,95,-99.99,,,-99.99,,2013-11-01 03:12:00,
2013-10-31 22:22:00,44.0,43.0,29.40,WSW,257,5.0,-999.0,95,-99.99,,,-99.99,,2013-11-01 03:22:00,
2013-10-31 22:45:00,44.0,43.0,29.41,WSW,242,5.0,-999.0,95,-99.99,,,-99.99,,2013-11-01 03:45:00,
2013-10-31 22:54:00,44.0,43.0,29.43,WSW,256,5.0,-999.0,95,-99.99,,,-99.99,,2013-11-01 03:54:00,
2013-10-31 23:14:00,44.0,43.0,29.44,WSW,251,4.0,-999.0,95,-99.99,,,-99.99,,2013-11-01 04:14:00,
2013-10-31 23:24:00,44.0,42.0,29.45,WSW,246,5.0,-999.0,94,-99.99,,,-99.99,,2013-11-01 04:24:00,
2013-10-31 23:54:00,44.0,42.0,29.45,West,268,7.0,-999.0,92,-99.99,,,-99.99,,2013-11-01 04:54:00,